Home > Weather > Punta Cana > Past weeks

Flag for Dominican Republic Past Weather in Punta Cana, Dominican Republic — Yesterday and Last 2 Weeks

Now
81 °F

Partly cloudy.


Feels Like: 87 °F
Forecast: 79 / 88 °F
Wind: 9 mph from Southeast

Location: Punta Cana

Current Time: Aug 29, 2016 at 9:34:24 PM

Latest Report: Aug 29, 2016 at 9:00 PM


Visibility: N/A

Pressure: 29.98 "Hg

Humidity: 89%

Dew Point: 77 °F

Location of Punta CanaLocation

Past Weather in Punta Cana — Graph

°F

Punta Cana Temperature Yesterday

Maximum temperature yesterday: 86 °F (at 11:00 AM)
Minimum temperature yesterday: 72 °F (at 5:00 AM)
Average temperature yesterday: 79 °F

High & Low Weather Summary for the Past Weeks

 TemperatureHumidityPressure
High90 °F (Aug 15, 3:00 PM)100% (Aug 24, 4:00 AM)30.07 "Hg (Aug 24, 4:00 AM)
Low72 °F (Aug 28, 5:00 AM)19% (Aug 22, 5:00 PM)29.80 "Hg (Aug 24, 3:00 PM)
Average83 °F80%29.97 "Hg
* Reported Aug 14 8:00 PM — Aug 29 8:00 PM, Punta Cana, Weather by CustomWeather, © 2016

Note: Actual official high and low records may vary slightly from our data, if they occured in-between our weather recording intervals... More about our weather records

Advertising

Punta Cana Weather History for the Previous 24 Hours

Scroll right to see more
 ConditionsComfort  
Time TempWeatherWind HumidityBarometerVisibility
8:00 PM
Mon, Aug 29
84 °FPartly cloudy.8 mph84%29.98 "HgN/A
7:00 PM84 °FPassing clouds.8 mph79%29.98 "HgN/A
6:00 PM84 °FPartly sunny.6 mph79%29.95 "HgN/A
5:00 PM84 °FPartly sunny.5 mph84%29.98 "HgN/A
4:00 PM84 °FPartly sunny.7 mph79%29.95 "HgN/A
3:00 PM86 °FScattered clouds.9 mph75%29.95 "HgN/A
2:00 PM88 °FScattered clouds.9 mph75%29.98 "HgN/A
1:00 PM86 °FScattered clouds.13 mph75%30.01 "HgN/A
12:00 PM86 °FScattered clouds.9 mph75%30.01 "HgN/A
11:00 AM86 °FScattered clouds.10 mph79%30.01 "HgN/A
10:00 AM86 °FScattered clouds.9 mph75%30.01 "HgN/A
9:00 AM84 °FScattered clouds.8 mph79%29.98 "HgN/A
8:00 AM84 °FScattered clouds.5 mph79%29.98 "HgN/A
7:00 AM81 °FScattered clouds.6 mph84%29.95 "HgN/A
6:00 AM81 °FPassing clouds.6 mph84%29.92 "HgN/A
5:00 AM81 °FPassing clouds.5 mph84%29.92 "HgN/A
4:00 AM79 °FPassing clouds.7 mph94%29.95 "HgN/A
3:00 AM73 °FPassing clouds.No wind100%29.95 "HgN/A
2:00 AM73 °FPassing clouds.No wind100%29.95 "HgN/A
1:00 AM73 °FPassing clouds.No wind100%29.98 "HgN/A
12:00 AM75 °FPassing clouds.No wind94%29.98 "HgN/A
11:00 PM
Sun, Aug 28
75 °FPassing clouds.No wind94%30.01 "HgN/A
10:00 PM77 °FPassing clouds.2 mph89%30.01 "HgN/A
9:00 PM79 °FPassing clouds.1 mph84%29.98 "HgN/A
Weather by CustomWeather, © 2016

See weather overviewHow to use our weather pages